SDM6567 ULLI-URSS

Flight info

Callsign SDM6567
Flight time N/A
Altitude 37000
Route SUGIN1B SUGIN T873 NIRGI DCT OSKAD DCT UPERI DCT OMEZA DCT ABAGI B105 NIMTA DCT SL DCT LIDUS DCT AST DCT DITEK/K0857F380 DCT GOTIK DCT MEMZA DCT OKOBA DCT VENFO DCT BINOL BINOL1K
Aircraft A319/M-SDE3FGHIRWY/LB1

Departure

Time 2026-05-06 11:34
Airport Pulkovo Airport (ULLI)

Arrival

Time N/A
Airport Sochi International Airport (URSS)
Time Latitude Longitude Altitude Speed Heading
2026-05-06 11:06 59.80339 30.26614 80 ft 0 kts 107°
2026-05-06 11:27 59.80338 30.26622 80 ft 1 kts 107°
2026-05-06 11:27 59.80331 30.26663 80 ft 4 kts 110°
2026-05-06 11:27 59.80302 30.26691 81 ft 5 kts 175°
2026-05-06 11:27 59.80263 30.26677 82 ft 5 kts 196°
2026-05-06 11:28 59.80227 30.26656 83 ft 5 kts 196°
2026-05-06 11:28 59.80191 30.26634 83 ft 6 kts 197°
2026-05-06 11:28 59.80148 30.26608 84 ft 6 kts 197°
2026-05-06 11:28 59.80106 30.26584 85 ft 6 kts 196°
2026-05-06 11:29 59.80060 30.26557 86 ft 7 kts 196°
2026-05-06 11:29 59.80011 30.26528 87 ft 7 kts 196°
2026-05-06 11:29 59.79963 30.26500 87 ft 7 kts 196°
2026-05-06 11:29 59.79911 30.26469 87 ft 8 kts 197°
2026-05-06 11:30 59.79852 30.26434 87 ft 9 kts 196°
2026-05-06 11:30 59.79787 30.26395 87 ft 10 kts 197°
2026-05-06 11:30 59.79717 30.26354 87 ft 10 kts 196°
2026-05-06 11:30 59.79642 30.26310 87 ft 11 kts 196°
2026-05-06 11:31 59.79563 30.26263 87 ft 8 kts 196°
2026-05-06 11:31 59.79523 30.26257 87 ft 6 kts 147°
2026-05-06 11:31 59.79501 30.26336 87 ft 7 kts 106°
2026-05-06 11:31 59.79470 30.26419 87 ft 8 kts 159°
2026-05-06 11:32 59.79433 30.26415 87 ft 0 kts 195°
2026-05-06 11:32 59.79430 30.26413 87 ft 1 kts 195°
2026-05-06 11:32 59.79404 30.26399 87 ft 5 kts 196°
2026-05-06 11:33 59.79359 30.26374 87 ft 7 kts 186°
2026-05-06 11:33 59.79327 30.26359 87 ft 4 kts 235°
2026-05-06 11:33 59.79326 30.26313 87 ft 0 kts 285°
2026-05-06 11:34 59.79377 30.25963 85 ft 63 kts 287°
2026-05-06 11:34 59.79565 30.24696 84 ft 127 kts 286°
2026-05-06 11:34 59.79852 30.22712 280 ft 160 kts 287°
2026-05-06 11:34 59.80148 30.20613 978 ft 157 kts 288°
2026-05-06 11:35 59.80452 30.18563 1709 ft 156 kts 288°
2026-05-06 11:35 59.80754 30.16511 2365 ft 157 kts 287°
2026-05-06 11:35 59.81068 30.14427 2807 ft 166 kts 287°
2026-05-06 11:35 59.81419 30.12099 3130 ft 183 kts 287°
2026-05-06 11:36 59.81799 30.09558 3388 ft 205 kts 287°
2026-05-06 11:36 59.82219 30.06715 3786 ft 224 kts 287°
2026-05-06 11:36 59.82667 30.03632 4204 ft 241 kts 284°
2026-05-06 11:36 59.82705 30.00265 4817 ft 252 kts 257°
2026-05-06 11:37 59.81889 29.97201 5614 ft 258 kts 230°
2026-05-06 11:37 59.80390 29.95229 6410 ft 267 kts 204°
2026-05-06 11:37 59.78621 29.94156 7234 ft 269 kts 200°
2026-05-06 11:37 59.76835 29.93204 8018 ft 272 kts 194°
2026-05-06 11:38 59.74939 29.93311 8770 ft 285 kts 168°
2026-05-06 11:38 59.73185 29.95238 9561 ft 296 kts 140°
2026-05-06 11:38 59.72050 29.98675 10318 ft 306 kts 113°
2026-05-06 11:38 59.71416 30.02763 10811 ft 321 kts 108°
2026-05-06 11:39 59.70826 30.07159 11136 ft 339 kts 107°
2026-05-06 11:39 59.70206 30.11773 11440 ft 357 kts 106°
2026-05-06 11:39 59.69703 30.16730 11730 ft 375 kts 100°
2026-05-06 11:39 59.69464 30.21885 12188 ft 386 kts 94°
2026-05-06 11:40 59.69370 30.27221 12852 ft 389 kts 93°
2026-05-06 11:40 59.69210 30.32547 13493 ft 392 kts 97°
2026-05-06 11:40 59.68854 30.37924 14102 ft 395 kts 101°
2026-05-06 11:40 59.68325 30.43306 14700 ft 398 kts 103°
2026-05-06 11:41 59.67755 30.48668 15280 ft 402 kts 103°
2026-05-06 11:41 59.67174 30.54063 15843 ft 405 kts 103°
2026-05-06 11:41 59.66581 30.59554 16398 ft 409 kts 103°
2026-05-06 11:41 59.65986 30.65069 16937 ft 412 kts 103°
2026-05-06 11:42 59.65422 30.70659 17460 ft 416 kts 101°
2026-05-06 11:42 59.64941 30.76311 17971 ft 419 kts 100°
2026-05-06 11:42 59.64477 30.81933 18457 ft 422 kts 100°
2026-05-06 11:42 59.64001 30.87701 18937 ft 425 kts 100°
2026-05-06 11:43 59.63525 30.93452 19400 ft 428 kts 100°
2026-05-06 11:43 59.63035 30.99312 19858 ft 431 kts 100°
2026-05-06 11:43 59.62546 31.05120 20294 ft 434 kts 99°
2026-05-06 11:44 59.61538 31.16992 21144 ft 440 kts 99°
2026-05-06 11:44 59.61028 31.22961 21551 ft 443 kts 99°
2026-05-06 11:44 59.60517 31.28900 21950 ft 446 kts 99°
2026-05-06 11:44 59.59995 31.34933 22349 ft 448 kts 99°
2026-05-06 11:45 59.59467 31.40998 22740 ft 451 kts 99°
2026-05-06 11:45 59.58929 31.47137 23123 ft 453 kts 99°
2026-05-06 11:45 59.58389 31.53272 23497 ft 456 kts 99°
2026-05-06 11:45 59.57843 31.59440 23868 ft 458 kts 99°
2026-05-06 11:46 59.57292 31.65632 24235 ft 460 kts 100°
2026-05-06 11:46 59.56735 31.71881 24595 ft 463 kts 100°
2026-05-06 11:46 59.56175 31.78122 24949 ft 465 kts 100°
2026-05-06 11:46 59.55613 31.84349 25296 ft 468 kts 100°
2026-05-06 11:47 59.55038 31.90670 25646 ft 470 kts 100°
2026-05-06 11:47 59.54457 31.97006 25988 ft 472 kts 100°
2026-05-06 11:47 59.53839 32.03364 26321 ft 475 kts 104°
2026-05-06 11:47 59.52739 32.09508 26636 ft 476 kts 117°